Location: Gad�tanya
(48.0500°N, 20.8500°E)
Time: 23:08:09
(UTC+00:00)

Cosmos 2151 - Pass Details

Date: 05 July 2020
Orbit: 580 x 602 km, 82.5° (Epoch: 05 August)

Event Time Altitude Azimuth Distance (km) Brightness Sun altitude
Exits shadow 21:47:16 40° 178° (S) 883 3.3 -18.2°
Maximum altitude 21:48:45 80° 99° (E) 614 2.9 -18.3°
Drops below altitude 10° 21:53:02 10° 12° (NNE) 1,942 6.6 -18.5°
Sets 21:55:15 0° 11° (N) 2,845 7.7 -18.5°
